Theta_e
316 316 317 316 317 317 317 317 317 318 319 319 319 320 320 320 321 321 322 323 323 324 324 324 325 325 325 326 327 326 324 312 310 311 307 309 320 333 336 338 339 339 335 311 304 303 301 299 301 300 299 299 302 300 303 305 301 295 290 283 285 287 289 291 289 290 291 294 293 294 293 293 294 297 299 297 297 295 295 296 296 298 297 298 299 300 303 304
315 315 315 315 316 316 317 317 317 317 318 319 319 319 320 320 321 321 322 322 323 323 324 324 324 325 325 325 326 326 317 314 311 310 312 325 333 337 340 340 339 334 323 306 303 300 300 299 299 298 297 297 301 301 303 302 299 292 288 285 288 286 292 293 294 292 293 294 293 294 294 294 295 295 298 295 294 295 294 294 294 295 297 299 300 301 302 304
315 315 315 315 315 315 316 317 317 317 317 318 318 318 319 320 320 321 321 322 322 323 323 324 324 324 325 325 325 325 317 311 309 309 313 334 335 337 340 338 338 331 310 309 307 304 303 302 300 300 296 298 295 300 298 300 300 296 289 287 288 289 295 294 295 296 294 294 294 294 296 294 297 297 298 296 292 294 293 293 294 294 296 297 299 300 301 302
314 315 315 315 315 315 315 316 316 317 317 317 318 318 318 319 320 321 321 322 322 323 323 324 324 324 324 325 326 318 314 305 304 305 314 332 335 338 339 338 337 323 312 310 309 307 303 301 298 300 297 293 295 295 297 299 294 295 289 287 292 291 293 297 295 296 294 294 294 294 294 295 296 295 297 292 294 293 293 294 295 295 296 297 298 298 299 301
314 315 315 314 315 315 315 315 316 317 317 317 318 318 318 319 320 320 321 321 322 322 323 324 324 325 324 325 324 313 303 295 301 309 315 331 335 336 336 336 333 317 309 307 305 302 300 299 300 296 296 295 294 293 295 296 297 291 293 291 291 292 294 296 296 296 294 293 293 292 294 295 297 297 293 293 292 290 295 296 295 296 298 298 298 298 299 299
313 314 315 315 315 315 315 315 315 316 316 317 318 318 318 319 319 320 320 321 322 322 323 324 324 324 325 324 312 313 299 288 302 309 332 331 333 334 335 334 332 314 306 302 303 302 301 299 296 295 293 292 292 293 295 296 299 293 294 293 293 293 295 295 295 295 294 295 293 293 295 296 295 295 294 293 294 292 294 295 296 298 298 299 299 298 298 298
314 313 314 314 313 315 314 315 315 315 316 316 317 317 318 319 319 319 320 321 321 322 323 323 324 324 324 321 309 302 298 298 308 312 326 331 331 334 332 325 319 304 302 302 301 302 298 297 295 297 291 291 293 293 296 295 294 293 293 294 297 294 296 295 297 293 290 293 294 294 295 296 294 295 295 294 295 295 295 295 297 297 298 299 298 298 298 298
315 315 314 314 314 314 315 314 315 315 315 316 316 317 318 318 319 319 320 321 321 322 323 323 323 324 322 308 307 298 300 300 307 315 324 328 323 319 316 311 306 306 304 302 303 301 298 297 297 295 292 293 296 295 296 295 294 293 295 295 296 296 296 295 294 293 293 295 294 295 295 295 293 295 294 294 294 295 295 295 296 297 297 297 297 297 297 298
315 315 315 315 314 314 314 314 315 316 316 315 316 316 317 318 318 318 320 320 321 322 322 323 323 323 321 307 299 297 294 305 317 319 318 317 314 305 307 311 307 305 303 301 302 303 301 298 299 299 296 295 297 296 295 295 291 295 296 294 295 296 296 295 295 294 294 296 294 296 293 292 292 295 294 293 294 294 294 295 295 295 295 296 296 296 297 298
314 314 315 315 314 314 314 315 315 316 316 316 316 316 317 317 318 319 320 320 321 321 322 323 323 322 313 305 294 291 298 312 317 318 316 310 307 308 307 308 307 305 306 303 302 300 301 300 300 302 298 296 297 295 295 294 294 295 294 295 296 296 295 295 295 295 293 296 294 295 293 295 293 295 292 294 295 294 294 294 293 294 294 295 295 295 295 297
315 314 314 314 314 314 315 315 315 316 316 316 316 316 317 317 318 319 319 320 321 321 322 322 323 316 307 302 295 291 309 317 316 311 310 309 309 307 308 308 308 306 304 305 304 305 303 301 302 300 299 297 297 295 294 297 296 295 295 296 295 292 294 294 294 293 295 296 293 295 293 292 292 294 292 293 294 294 294 293 292 292 293 294 294 294 294 296
316 316 315 314 314 315 315 315 315 316 317 317 316 316 316 317 317 318 319 320 321 322 322 322 322 311 305 296 294 296 311 312 313 309 310 312 311 309 308 308 308 308 307 305 307 306 304 305 301 300 296 300 294 296 297 296 297 296 296 294 291 291 295 294 295 294 294 295 293 294 294 292 291 291 291 293 294 294 293 293 292 292 292 293 293 293 294 294
318 317 316 316 315 315 315 315 315 316 317 318 318 317 317 317 317 318 319 320 321 322 322 322 319 311 303 296 297 305 308 310 311 310 309 308 308 308 309 309 308 305 307 306 306 307 306 301 299 299 300 296 295 295 297 297 296 297 294 292 292 290 290 293 295 293 294 295 292 295 287 286 289 293 292 294 294 293 292 292 292 291 292 292 292 293 293 293
318 318 317 317 316 316 315 314 315 316 317 317 318 317 317 317 317 318 319 320 322 322 322 322 312 307 302 295 305 310 311 315 311 310 310 310 307 308 308 308 308 307 308 307 307 305 306 302 302 300 302 298 297 301 296 293 293 294 292 290 288 287 286 292 293 292 295 294 293 294 287 288 290 290 291 293 294 293 292 292 292 291 292 292 292 292 293 293
318 317 318 317 317 316 315 315 314 315 317 318 317 318 317 316 317 318 320 321 322 323 323 319 309 305 296 298 309 314 326 313 310 308 309 309 307 306 307 306 305 304 306 305 306 305 304 305 302 297 297 298 299 297 289 289 289 290 289 286 283 287 285 291 293 293 294 293 293 294 286 291 294 293 292 293 293 293 292 292 292 291 292 292 292 292 292 293
318 318 318 318 317 317 316 315 315 315 317 317 318 318 317 317 317 319 321 321 323 323 312 311 309 298 295 294 306 321 311 306 308 308 308 310 307 306 305 304 306 303 303 303 305 303 303 300 298 296 296 297 292 286 286 287 288 285 289 283 284 286 285 290 294 293 294 291 293 293 289 287 291 289 291 292 292 292 291 291 291 292 292 292 292 292 292 292
318 318 318 318 318 317 316 316 316 317 317 318 318 318 317 317 318 320 321 322 318 316 311 306 305 304 294 301 312 305 304 307 310 309 310 309 310 306 305 304 303 303 304 304 302 303 300 299 297 297 293 291 289 287 285 281 283 283 285 286 284 287 286 287 289 293 292 293 290 291 289 290 291 289 291 292 292 291 291 291 292 292 292 292 292 292 292 292
318 318 318 318 317 317 316 315 316 317 318 318 317 316 315 318 320 319 317 316 311 309 309 313 306 295 294 301 296 299 306 307 308 308 308 308 306 304 302 302 301 300 299 300 300 299 299 297 293 291 291 292 292 287 284 282 285 282 287 286 287 287 287 289 289 292 292 292 290 289 289 291 293 291 290 292 292 292 292 292 292 292 292 292 292 292 292 291
319 318 318 318 318 317 316 316 315 316 317 318 318 319 320 320 315 312 310 310 300 294 292 295 293 287 286 294 301 307 308 309 308 308 307 307 308 306 303 302 301 300 296 295 295 298 294 293 292 289 289 288 290 291 290 290 288 287 286 286 284 287 287 288 290 291 293 289 289 288 289 291 292 293 292 290 292 292 292 291 290 291 291 292 292 292 292 291
319 319 318 318 318 317 316 316 316 316 318 314 310 309 305 302 295 298 304 305 301 293 294 295 299 298 301 301 304 307 310 307 305 305 307 308 306 304 302 301 299 296 295 293 294 296 294 289 287 287 290 292 292 293 293 293 291 289 288 287 287 287 288 289 290 291 291 290 288 290 290 291 291 292 293 291 291 291 291 291 291 291 292 291 291 292 292 291
319 319 319 318 318 318 317 316 316 317 318 311 310 305 292 297 288 287 297 302 303 304 301 301 301 297 301 304 304 305 304 303 304 304 306 309 304 303 299 299 294 293 292 292 294 296 295 289 288 292 293 293 293 293 292 292 291 291 289 287 287 286 288 290 292 292 292 291 285 287 288 289 291 292 292 291 290 291 291 292 292 292 292 292 292 291 292 291
319 319 319 318 318 318 318 317 317 317 318 310 310 306 305 302 301 302 299 294 299 304 304 303 303 301 303 304 305 305 302 300 302 304 307 306 302 299 296 294 291 293 292 293 292 291 289 288 292 294 294 292 292 291 291 291 290 289 288 287 285 288 287 291 290 290 291 290 289 287 288 291 292 293 293 291 292 293 294 294 294 293 292 292 291 291 291 290
319 319 319 319 318 318 318 318 317 318 311 308 307 309 306 309 309 307 303 296 297 302 303 302 300 301 301 303 306 305 300 297 298 301 303 305 299 298 296 294 292 291 292 293 292 286 287 288 293 295 293 293 292 291 290 290 289 288 287 286 287 286 288 285 287 288 292 291 287 286 288 290 292 292 293 294 294 293 294 294 294 294 294 292 292 292 291 290
319 319 319 319 318 318 318 317 318 315 309 306 305 307 309 308 309 307 302 294 292 298 302 304 303 301 300 301 305 304 300 298 299 300 305 302 299 296 296 294 292 291 291 293 293 291 290 292 294 294 293 293 292 290 289 288 287 286 289 287 286 287 287 289 288 290 288 289 289 289 289 291 293 293 294 294 291 292 293 292 292 292 292 293 292 291 292 291
319 319 319 319 318 318 317 318 312 310 308 307 306 311 311 308 308 309 299 293 290 293 302 303 304 303 303 306 305 304 299 300 299 303 306 303 298 296 295 296 292 291 291 293 292 290 291 293 293 293 291 292 291 290 290 290 286 286 287 290 291 290 289 287 288 289 283 284 285 289 282 281 283 288 291 292 289 290 291 291 292 292 292 291 291 291 291 291
319 319 319 318 318 317 319 309 309 311 308 304 305 309 311 309 309 309 293 286 283 288 296 293 305 300 308 301 304 301 300 297 299 304 307 304 307 299 297 295 295 291 292 291 291 290 292 294 295 292 292 290 291 290 289 292 289 285 287 289 291 290 288 288 287 287 281 281 287 289 285 283 283 289 289 288 286 290 290 289 291 291 291 290 292 291 291 291
320 319 319 318 318 318 309 302 312 310 304 304 310 309 307 309 309 308 290 281 279 291 290 298 298 296 307 301 303 298 288 290 303 304 304 306 303 306 296 293 294 294 295 293 290 289 292 292 294 292 291 290 289 288 290 292 289 285 286 288 289 289 288 287 287 288 283 282 286 286 283 282 286 289 292 295 294 294 294 292 290 290 290 290 291 291 291 291
320 319 318 319 318 316 308 309 309 306 305 307 308 311 309 309 309 303 286 276 274 295 292 294 298 306 304 302 303 298 294 299 296 299 300 302 303 301 297 293 295 294 294 293 286 291 292 290 290 290 290 288 289 291 290 293 290 286 289 289 288 289 287 287 287 284 284 284 282 283 285 284 283 284 286 289 289 291 293 294 293 291 290 290 290 290 291 291
319 319 318 318 318 317 314 310 307 306 310 308 309 311 313 310 304 290 281 273 288 292 304 297 308 302 297 300 299 296 295 295 293 297 300 302 303 298 294 293 294 294 295 296 291 289 293 292 293 294 292 290 290 289 291 294 290 290 289 289 288 287 285 283 282 286 282 281 282 284 286 283 286 285 287 284 288 290 292 295 295 292 291 290 290 290 290 290
319 319 318 318 317 315 312 312 309 311 311 310 311 313 311 307 296 287 279 272 296 288 296 297 297 294 296 295 293 295 295 294 293 298 299 298 299 299 299 297 294 293 292 294 291 290 294 294 294 294 291 292 290 290 288 291 291 291 289 290 287 284 282 280 280 281 282 278 284 285 286 287 283 284 288 288 289 291 293 292 290 289 290 290 290 290 290 290
319 318 317 318 312 312 311 306 310 313 311 313 313 312 308 297 285 281 275 283 291 291 294 293 292 296 294 293 291 291 291 291 295 296 294 297 296 295 296 294 295 289 286 287 288 285 290 291 293 291 292 290 291 290 289 289 290 293 286 283 284 285 280 277 275 277 276 279 282 286 287 287 282 280 284 290 289 288 291 291 290 288 289 290 290 289 290 289
318 318 318 316 316 315 307 305 312 314 313 314 313 308 300 286 289 280 280 291 285 287 291 288 291 292 294 295 293 292 293 292 294 295 293 292 292 293 293 291 291 285 284 287 285 286 287 288 288 292 293 293 289 290 289 288 291 289 287 288 283 276 275 275 273 275 277 279 281 281 285 282 285 290 286 289 291 292 291 291 291 290 289 290 290 290 289 289
318 317 317 317 315 312 312 313 315 314 314 313 309 304 293 284 278 286 286 288 283 292 290 293 291 293 294 293 291 292 293 291 293 293 294 292 292 293 294 294 293 290 283 285 286 285 286 284 288 290 292 293 294 290 284 285 288 287 288 285 281 275 274 270 271 270 273 277 280 281 283 284 282 287 293 296 298 297 294 291 291 291 291 290 290 290 289 288
318 317 315 316 315 314 314 315 315 314 313 311 305 298 291 281 281 293 288 289 289 292 293 290 292 291 293 291 290 294 289 291 292 292 293 291 291 289 292 293 292 291 287 284 286 286 280 281 288 291 288 292 295 295 294 289 288 290 288 290 286 281 273 272 273 276 277 276 277 279 280 277 279 285 287 292 291 287 285 287 288 289 290 289 289 289 288 287
317 317 316 316 314 315 315 315 315 315 313 308 300 292 283 282 287 286 287 289 289 292 291 293 292 290 288 287 287 293 292 288 292 291 290 290 288 289 289 292 294 293 287 287 285 281 286 285 284 294 290 294 294 293 291 288 288 285 284 286 283 285 283 284 276 274 273 273 273 275 281 281 286 286 288 286 286 287 286 286 287 288 287 287 287 288 288 288
316 314 316 312 311 314 315 316 315 315 311 303 295 287 283 287 284 291 289 295 292 290 290 292 288 287 287 287 288 291 293 289 290 290 288 290 291 290 293 292 293 295 291 288 287 282 283 281 286 291 290 294 294 292 292 293 286 285 288 286 287 286 288 283 276 277 277 273 280 275 280 282 284 290 292 292 286 288 286 286 286 286 285 286 287 288 288 288
311 313 308 311 311 315 315 316 315 312 309 301 292 285 289 290 295 293 296 293 293 293 291 288 287 288 285 286 287 288 290 290 288 288 286 289 289 292 290 292 295 295 297 294 286 290 285 283 287 287 288 290 287 290 289 289 290 287 283 286 288 288 286 283 279 272 269 274 277 279 282 282 280 284 284 288 286 289 287 287 285 285 284 286 287 287 288 288
311 310 310 310 313 315 316 316 314 310 305 298 289 291 294 290 297 295 295 293 293 294 292 290 288 292 285 287 286 288 289 290 287 287 285 289 286 294 292 290 294 296 297 296 291 290 293 285 286 285 286 288 289 292 291 290 290 289 286 289 290 282 281 281 276 277 273 275 276 276 279 282 284 286 283 286 287 290 291 288 284 285 284 286 286 286 286 286
311 308 303 310 316 315 315 316 312 306 300 292 288 288 294 293 297 296 294 295 295 295 291 291 289 291 291 287 288 290 291 287 288 287 285 286 286 292 294 295 291 296 297 297 293 289 292 286 284 286 287 287 288 289 285 285 290 288 290 289 286 283 276 279 283 275 277 273 269 278 277 282 285 286 287 290 289 290 292 287 287 288 288 287 287 287 286 286
307 303 301 313 315 315 315 313 306 303 297 289 289 289 296 293 295 296 297 295 293 294 292 292 292 289 291 290 291 288 290 290 288 288 288 287 290 292 293 297 293 293 296 298 295 297 290 289 281 284 284 287 284 285 286 288 286 284 286 284 287 283 285 283 282 281 279 271 270 275 279 283 284 289 289 292 291 291 291 291 291 290 288 287 287 287 287 287
308 302 302 312 314 315 314 307 299 295 294 296 295 292 294 293 295 296 298 299 295 300 294 293 292 291 292 290 290 293 289 289 288 287 288 287 290 286 293 295 294 292 295 295 295 294 290 286 285 283 283 283 284 287 291 292 293 290 289 287 289 285 283 281 281 282 279 279 279 272 280 287 284 287 293 292 293 293 291 292 292 290 288 288 288 287 288 287
303 293 299 312 314 314 306 296 296 299 296 291 289 294 292 299 294 295 296 298 297 294 301 298 294 293 292 293 294 291 290 289 289 288 287 289 292 291 291 298 297 297 295 290 292 297 294 287 286 282 283 286 286 286 287 288 288 288 288 285 290 290 288 283 281 281 280 284 279 276 272 285 288 287 286 288 288 289 289 288 290 290 288 288 288 288 288 288
300 298 308 311 314 311 302 295 297 295 293 294 298 296 298 296 295 296 295 297 295 297 295 294 295 293 293 293 293 293 294 290 291 289 290 290 291 295 292 297 298 297 298 292 295 293 295 289 287 285 285 284 285 285 286 286 289 288 287 283 288 288 290 289 287 285 285 282 281 277 277 284 287 285 284 284 283 283 285 287 291 289 287 288 288 287 287 287
300 301 303 311 314 310 299 289 289 290 291 295 294 294 299 296 295 294 294 296 295 295 293 294 297 297 294 294 294 293 296 289 292 293 290 291 288 292 294 297 298 295 295 292 293 296 290 288 289 285 281 282 282 285 286 286 288 284 285 289 291 291 289 286 285 285 283 285 284 282 280 286 288 285 283 283 284 287 287 287 287 289 287 288 288 287 287 287
299 300 302 305 310 307 296 297 293 290 290 291 292 291 293 295 297 297 296 295 297 296 295 293 296 298 296 296 294 296 296 294 290 293 294 291 293 292 294 297 299 296 298 297 298 300 293 289 289 284 282 280 278 278 281 283 285 287 286 289 289 289 288 287 286 285 283 286 285 285 285 289 286 286 289 286 285 287 286 285 285 287 289 288 287 287 287 287
295 288 297 300 304 303 302 303 299 294 291 292 291 292 293 292 295 298 298 296 298 297 296 296 297 298 297 297 294 294 293 297 294 288 292 289 288 289 290 293 296 297 298 298 297 299 289 290 292 290 287 286 287 287 287 290 285 284 286 288 289 290 291 291 289 286 284 285 284 288 289 290 290 288 287 288 286 287 288 286 287 288 286 286 287 288 287 287
298 291 292 288 299 299 297 300 297 297 291 295 288 292 290 292 294 294 299 293 297 296 296 295 294 293 294 296 295 294 295 294 294 289 290 292 289 288 289 291 295 295 296 295 297 291 286 288 291 292 290 291 293 288 287 291 288 288 287 286 289 289 289 288 287 286 289 285 284 290 289 288 290 292 291 287 287 285 286 286 287 287 287 288 288 286 288 286
289 293 298 298 292 289 293 294 297 297 297 296 291 295 291 291 292 290 295 297 298 299 294 294 295 296 295 295 296 291 293 293 293 291 291 289 288 289 289 291 292 293 294 294 296 296 289 289 292 292 291 294 294 291 289 290 290 289 289 288 287 288 288 287 288 291 289 287 286 290 289 289 291 294 295 292 291 291 291 291 290 288 287 285 286 286 286 286
296 295 294 297 292 293 296 297 297 296 295 295 292 293 291 291 290 293 293 293 295 295 297 289 292 294 295 296 295 292 293 289 288 293 290 287 288 287 287 290 292 290 292 290 291 287 290 290 291 292 290 292 293 288 288 289 288 286 288 288 288 288 288 289 289 290 290 289 291 292 289 290 293 293 293 295 294 293 290 287 286 287 287 287 286 286 286 286
290 291 289 294 294 294 294 295 295 294 291 293 287 289 292 292 291 294 295 294 289 292 298 293 294 295 295 296 295 292 294 296 295 291 291 292 287 288 289 289 285 286 288 289 291 287 290 288 289 287 287 288 291 288 287 288 286 285 286 287 288 288 288 289 289 289 290 290 292 291 290 289 294 291 292 293 290 287 287 288 289 289 287 287 288 288 287 286
296 296 297 290 287 290 293 293 292 292 290 290 287 289 290 292 291 295 294 298 294 292 295 293 296 296 296 295 295 295 297 297 298 297 296 296 291 293 293 289 291 288 287 287 287 286 287 287 286 286 286 287 289 287 286 285 285 285 286 286 286 286 284 287 287 290 289 288 289 289 287 289 292 294 293 288 288 290 291 290 290 288 288 288 288 288 288 288
297 297 297 294 286 292 290 291 293 292 287 290 289 289 289 290 293 294 290 295 297 298 297 297 297 296 294 294 294 296 299 300 299 298 296 295 299 296 297 293 292 289 288 288 286 286 287 287 286 286 285 286 289 287 286 285 285 284 286 289 290 287 288 289 290 291 291 292 288 287 288 294 295 289 290 289 290 290 290 290 289 287 287 288 288 289 289 289
Wind_Speed
2 3 4 4 4 4 4 5 6 7 7 7 8 9 9 9 9 9 10 11 11 12 12 13 14 14 14 14 15 14 13 1 2 1 1 2 1 3 6 7 8 8 6 3 6 8 4 5 8 9 6 3 1 1 2 2 1 2 2 4 3 1 1 2 3 8 1 7 5 3 3 5 2 0 0 2 9 5 3 5 2 5 5 1 1 2 2 2
2 2 3 4 4 5 5 5 5 6 7 7 7 7 8 8 8 9 10 11 12 12 13 13 14 14 14 14 14 13 8 1 1 2 1 1 2 4 6 7 6 6 5 2 5 3 4 6 5 6 5 1 2 0 1 1 2 4 2 4 2 3 1 1 2 4 3 4 5 3 1 5 4 5 1 2 0 2 3 3 2 3 3 4 5 4 6 5
2 3 3 4 4 4 5 5 5 5 6 7 7 7 7 8 8 9 10 11 11 12 13 13 14 14 14 14 14 11 5 1 1 0 1 1 3 4 6 6 4 4 3 1 0 1 0 2 2 2 3 0 5 1 3 2 1 0 3 3 0 5 0 0 1 1 3 5 5 3 0 4 2 1 1 2 5 0 6 5 1 1 3 3 1 4 4 6
1 2 3 3 4 3 4 4 5 5 5 6 6 7 7 7 8 9 10 11 11 12 13 13 14 14 14 14 12 7 0 1 0 1 1 3 4 5 6 5 4 2 1 1 2 0 1 1 2 1 1 4 3 2 3 3 3 1 4 2 3 4 2 0 0 1 3 5 5 3 0 2 1 3 1 4 5 3 4 7 8 11 9 7 4 4 4 5
1 1 2 2 3 3 4 4 5 5 6 6 6 7 7 7 9 9 10 11 11 12 13 13 14 14 14 13 12 1 3 3 2 1 1 2 4 5 6 5 4 1 1 2 2 2 4 4 1 3 3 0 3 2 1 2 1 3 1 1 3 2 1 2 1 1 3 1 6 2 4 4 1 1 3 8 4 6 8 7 7 5 11 10 8 4 4 4
2 1 0 2 2 3 4 4 5 6 7 6 7 7 7 8 8 10 10 11 11 12 13 13 14 15 14 14 1 1 1 1 1 0 2 3 3 5 6 5 5 1 0 4 3 2 7 5 4 2 2 2 2 2 2 0 0 2 1 0 1 2 2 2 1 1 4 2 4 2 2 2 1 1 2 5 5 3 3 2 6 8 8 7 6 6 5 4
3 3 2 0 2 3 4 4 5 5 6 6 7 7 8 8 8 10 10 11 11 12 13 13 13 15 16 6 0 2 1 3 1 3 3 4 5 5 6 6 4 4 6 4 6 3 2 4 4 0 2 2 0 2 1 2 5 7 1 1 2 1 3 4 2 4 4 9 4 2 2 2 2 3 0 3 1 1 1 4 7 7 7 7 7 5 7 5
5 3 2 2 2 2 3 4 5 5 5 6 6 7 8 8 8 9 10 10 11 12 12 13 13 13 12 1 1 1 2 2 2 2 4 4 5 6 6 2 5 3 5 2 1 2 1 5 2 1 4 2 1 1 1 3 5 3 1 0 1 0 0 1 2 2 2 1 1 3 2 4 5 2 1 3 3 2 3 5 7 7 7 5 7 6 6 5
5 4 3 2 1 2 3 3 5 6 6 6 6 7 8 9 8 9 9 10 10 11 11 12 14 12 5 1 3 1 3 1 3 3 1 4 6 7 6 0 5 3 1 2 3 2 2 0 1 1 1 0 1 2 3 1 2 0 1 1 1 1 0 0 1 2 3 1 2 1 4 4 5 2 3 4 5 4 4 5 6 7 7 6 6 6 6 6
6 6 5 4 2 2 2 3 4 5 6 7 7 7 8 8 9 9 10 10 10 10 11 12 12 12 2 2 2 0 2 3 4 2 2 3 6 6 8 2 3 2 1 3 3 4 2 1 2 1 4 1 1 1 1 3 1 2 1 0 1 1 2 1 4 4 2 1 3 4 1 1 3 3 7 0 5 4 5 5 4 7 6 5 5 5 4 6
9 8 6 5 4 3 3 3 3 4 5 6 7 8 8 9 9 10 10 10 10 9 10 11 10 7 1 1 3 5 1 2 1 1 3 5 6 5 1 5 1 2 5 3 3 0 2 2 2 1 2 0 1 2 1 0 2 2 1 0 1 5 2 3 2 5 1 2 4 4 3 1 2 1 7 5 6 6 9 5 5 5 5 5 5 4 3 4
10 8 7 6 5 4 4 4 5 5 6 6 7 8 9 10 10 10 10 10 9 9 9 8 9 1 2 4 3 2 3 2 4 1 2 1 2 3 3 1 0 2 2 2 0 0 2 1 4 1 1 0 0 0 0 0 1 0 1 2 4 5 3 3 7 5 5 3 4 4 1 3 1 7 4 4 7 6 7 7 5 5 4 4 4 4 4 5
9 8 8 7 5 6 4 4 5 6 6 8 8 9 9 9 9 10 10 10 9 9 8 8 5 1 1 1 6 5 2 2 2 2 3 3 2 1 1 0 1 2 2 4 2 1 2 2 3 5 0 2 1 0 1 2 0 1 3 1 5 5 4 4 0 1 6 1 5 3 4 7 8 9 1 5 9 5 6 6 5 5 5 4 4 4 4 2
9 9 9 7 5 4 5 4 5 6 7 8 8 9 11 10 10 10 9 10 11 8 7 8 1 1 1 3 3 3 2 1 2 3 0 1 4 2 3 3 2 1 1 4 1 1 1 1 5 4 1 2 0 0 2 2 3 0 1 3 0 3 3 2 0 3 6 2 5 2 4 8 8 6 3 6 9 13 10 7 6 6 5 5 5 5 5 5
10 9 9 8 7 6 4 4 5 6 7 7 8 9 12 10 8 10 10 11 9 8 8 3 1 1 1 4 2 6 4 1 1 2 2 2 3 1 0 1 3 3 0 3 1 0 2 3 3 2 0 1 1 1 2 3 4 1 3 4 4 3 6 8 2 7 7 1 1 3 3 10 11 7 6 7 6 7 9 8 8 7 7 7 5 6 5 5
11 11 10 10 9 7 6 5 5 5 7 8 9 9 9 8 8 10 12 9 11 7 1 0 3 4 3 3 1 2 1 2 2 3 1 2 2 1 2 2 0 3 2 2 2 2 4 6 5 1 0 2 5 6 4 3 3 5 2 4 2 0 5 7 0 2 2 4 1 6 7 3 5 4 3 5 7 6 6 7 8 9 9 8 8 6 5 5
12 11 11 10 9 9 7 6 5 5 7 8 9 9 8 8 9 11 13 10 3 1 1 1 0 0 1 2 1 0 3 3 2 1 0 1 2 5 4 2 1 1 3 3 6 3 5 3 2 1 4 3 3 5 2 3 5 3 1 3 3 2 1 2 5 1 1 5 4 3 2 8 5 1 3 4 6 6 7 9 9 9 8 9 7 7 7 7
12 11 11 10 10 9 9 7 6 7 7 8 9 8 6 8 8 9 4 3 2 2 0 1 1 1 6 2 2 5 1 3 1 3 1 1 4 4 3 2 0 3 3 2 4 2 2 1 4 4 1 1 1 2 3 6 6 1 1 1 6 1 4 6 1 2 4 1 4 3 6 13 13 5 5 7 6 8 11 11 10 9 8 8 8 8 8 7
13 12 12 11 11 10 8 7 7 7 8 8 9 9 9 6 1 0 2 2 2 2 1 2 3 5 3 6 1 3 1 3 3 4 3 3 0 2 3 3 4 4 1 2 2 1 2 4 5 3 3 2 6 8 9 9 5 3 5 5 3 2 3 2 6 3 9 5 5 6 9 13 13 13 7 6 8 10 12 5 4 7 8 8 9 8 9 8
14 13 13 12 11 10 8 7 6 6 6 4 3 2 2 1 1 0 2 1 4 6 2 4 4 1 1 2 4 1 0 3 5 2 1 2 3 2 3 2 3 6 3 4 0 1 1 3 5 7 9 10 7 10 10 6 5 2 2 2 4 4 6 4 3 4 3 1 7 10 10 10 10 9 11 6 5 7 8 9 9 9 11 11 10 11 10 9
15 14 13 12 11 11 9 8 6 6 3 0 1 1 3 6 4 5 3 6 5 3 2 3 8 3 0 2 2 7 5 1 1 2 4 1 2 7 2 2 2 1 1 3 5 1 3 4 8 10 11 10 10 8 5 0 1 2 2 2 7 3 8 5 3 1 0 4 4 5 7 11 13 11 10 2 6 12 14 14 13 12 12 12 12 11 10 7
15 15 13 13 12 11 10 8 6 5 2 1 0 3 1 1 0 1 2 3 4 12 8 4 3 4 2 3 3 3 5 3 0 1 2 2 4 7 2 4 3 7 1 2 3 2 2 8 11 13 3 2 1 4 4 6 6 3 4 3 3 8 4 8 4 2 1 2 9 4 6 11 11 10 8 7 11 10 14 17 18 17 14 12 11 11 9 7
16 15 14 13 12 12 11 8 7 4 2 1 3 2 2 1 1 0 1 2 4 2 7 6 5 8 5 2 1 1 2 4 8 5 5 3 3 4 6 4 4 3 3 4 8 3 3 5 16 9 5 3 2 2 4 2 1 5 3 2 8 3 0 6 2 2 0 3 3 0 5 11 9 7 11 11 11 9 10 14 15 13 15 15 17 17 16 14
17 16 15 14 13 13 10 9 6 5 3 3 2 5 2 1 3 2 2 2 3 4 5 7 9 5 9 6 5 8 6 4 4 8 3 5 10 3 5 6 5 4 8 9 10 11 11 3 2 6 8 8 6 5 4 4 7 4 6 5 5 5 6 7 5 2 3 3 1 5 8 12 10 11 9 8 3 6 10 6 11 9 7 8 5 6 10 16
18 17 16 15 13 12 9 7 4 4 3 2 4 7 5 1 4 3 1 3 1 4 1 1 4 3 5 3 3 8 3 1 5 4 7 9 6 4 4 2 4 6 6 9 4 4 9 6 3 7 5 5 5 4 7 7 7 4 6 11 10 8 6 4 2 3 5 4 2 1 5 6 5 6 10 7 2 5 6 8 12 12 10 7 11 13 8 7
18 17 16 16 15 12 10 4 4 5 6 5 4 4 8 4 2 0 3 2 6 3 2 6 5 6 6 4 5 4 4 6 3 4 9 7 3 4 2 2 3 8 5 4 7 4 6 3 4 6 6 5 6 6 4 8 8 3 7 10 10 7 5 2 1 2 3 5 2 1 5 11 2 5 4 4 2 11 6 6 10 9 10 9 11 11 13 13
19 19 18 17 17 15 7 6 3 8 3 7 6 5 3 4 2 0 1 3 6 5 7 2 3 2 1 5 10 5 3 7 2 4 6 1 7 0 5 5 2 1 3 3 2 7 3 5 7 3 4 6 5 6 5 10 6 6 2 4 5 4 4 5 3 6 6 1 5 1 2 6 15 6 7 10 12 14 13 11 11 11 8 10 9 10 11 12
20 20 19 19 18 18 2 3 8 8 6 2 2 7 3 4 4 1 3 0 5 2 2 3 2 2 2 5 13 12 2 5 5 4 1 1 1 1 2 8 11 11 5 5 10 1 6 5 5 5 5 5 9 7 3 9 7 4 1 6 4 5 4 2 3 3 1 2 8 4 1 5 7 3 3 1 5 11 15 15 14 11 9 9 9 9 11 12
20 20 20 19 20 20 6 4 3 9 3 2 4 7 4 4 2 5 4 4 1 1 3 3 5 2 2 4 8 2 2 5 2 0 1 1 3 2 4 5 4 6 6 11 12 1 1 6 10 12 9 9 5 1 6 11 6 2 5 7 7 7 6 4 2 2 2 1 9 7 5 6 18 4 2 2 2 10 12 14 12 8 11 11 10 8 9 8
20 21 22 21 16 14 8 1 6 1 0 3 6 7 6 4 2 2 3 7 1 3 1 1 2 6 5 13 6 1 3 2 2 1 1 3 1 2 1 2 4 3 5 3 3 3 1 3 3 3 7 4 5 2 3 6 3 6 4 7 6 8 4 3 6 2 2 4 12 8 11 8 12 2 9 7 9 9 9 6 4 1 6 8 9 11 12 12
23 23 23 24 13 9 7 7 13 3 1 4 6 8 6 2 4 4 7 5 2 2 2 1 3 4 11 14 9 2 4 1 0 5 3 0 1 3 0 4 3 4 1 3 6 4 1 2 1 1 4 3 4 4 3 1 3 7 2 4 4 3 6 3 4 4 1 10 3 10 12 12 11 4 6 7 4 3 6 6 6 4 8 10 10 10 10 11
24 24 25 19 10 11 16 14 12 8 6 8 9 9 8 5 5 9 6 4 2 5 9 4 2 6 14 7 8 12 10 1 3 6 10 7 7 10 9 10 7 4 5 8 8 2 4 4 2 3 4 9 2 5 2 4 1 5 6 8 6 4 4 3 3 3 8 9 1 2 1 2 18 11 4 7 9 10 8 7 7 6 7 9 9 10 9 9
21 22 25 18 13 12 10 5 10 7 6 9 8 4 8 7 12 9 9 7 5 5 4 4 5 8 10 7 6 4 3 9 2 4 4 1 7 9 5 5 6 5 8 3 6 1 7 1 2 3 2 5 9 9 2 1 4 6 9 7 6 1 1 4 5 3 6 6 3 1 1 9 2 7 13 20 21 15 8 6 7 6 7 9 11 10 10 10
23 24 17 16 15 12 10 10 8 11 12 11 9 4 2 6 10 13 18 13 6 2 5 3 4 3 9 11 7 9 4 2 8 4 5 6 7 9 8 8 4 3 5 2 9 9 4 5 8 8 6 5 10 13 14 6 9 10 3 12 10 9 7 5 6 6 6 4 3 3 3 8 4 5 2 9 7 6 5 5 5 6 5 5 6 7 8 9
26 23 16 13 13 11 13 12 13 14 10 11 10 12 16 13 5 14 15 14 4 2 2 1 7 7 5 3 1 6 4 3 5 5 5 8 9 7 9 11 10 4 2 4 4 3 12 7 6 10 1 8 12 2 7 6 2 2 2 6 5 10 7 9 4 3 1 2 3 2 7 5 7 2 4 4 6 7 5 4 2 5 2 6 8 12 13 12
18 12 14 8 11 12 14 11 11 15 13 11 12 12 16 15 14 11 8 6 3 4 4 5 3 5 7 7 2 10 2 3 4 4 3 6 4 9 10 5 14 18 10 11 4 4 3 5 1 2 4 8 8 5 3 6 8 4 5 8 7 1 4 3 2 1 1 2 12 4 9 7 8 10 11 11 6 10 4 5 2 4 3 5 9 10 11 12
11 9 10 11 15 14 16 14 14 13 12 16 15 14 14 8 8 4 3 9 16 12 7 9 7 10 8 9 6 6 6 5 4 6 6 3 6 8 5 7 4 12 16 8 1 3 8 5 1 4 4 1 1 1 3 4 4 7 4 8 2 2 4 3 5 2 1 5 7 5 11 7 1 13 2 3 6 10 7 9 5 2 4 8 9 9 12 13
8 6 11 15 16 15 16 14 16 13 12 13 16 15 8 11 7 7 1 4 5 6 9 14 3 10 4 9 8 7 4 8 7 5 5 7 7 7 10 3 7 14 18 3 4 2 3 5 1 1 1 2 2 3 3 2 2 6 7 4 7 5 3 2 3 5 1 6 7 4 4 11 10 11 2 2 8 11 14 10 3 6 7 10 7 8 7 6
5 4 4 16 10 15 16 16 16 16 12 12 12 12 8 18 10 7 2 3 2 9 13 11 8 6 8 9 5 6 11 11 10 9 7 4 7 6 16 11 7 13 13 10 4 2 1 5 3 1 3 1 1 4 9 4 1 2 3 3 1 3 1 6 7 3 5 5 2 9 6 14 8 9 10 10 12 13 13 7 11 14 14 10 10 10 11 12
5 4 8 7 18 17 16 16 13 12 11 18 13 13 9 13 5 5 6 6 5 11 9 11 9 5 8 8 12 9 9 8 12 10 8 4 10 2 9 10 6 7 13 16 9 4 2 2 6 1 2 2 4 4 8 11 10 1 2 5 1 1 1 3 0 4 5 3 4 7 12 8 5 7 10 11 12 13 13 14 13 13 10 9 9 11 12 12
3 4 3 8 19 18 16 13 13 18 14 10 13 13 9 7 6 7 13 8 1 3 3 7 8 13 9 8 7 7 7 9 8 8 7 5 10 6 7 8 7 7 5 5 8 4 4 3 8 3 1 6 6 4 8 12 11 13 16 15 16 11 5 3 8 2 2 3 7 4 16 9 4 4 10 10 11 11 11 10 11 8 6 9 10 10 12 12
6 8 4 9 16 23 17 15 8 9 9 14 16 13 7 7 2 4 8 9 5 4 3 0 4 7 7 8 9 8 6 8 9 8 6 12 11 8 3 14 11 16 15 11 15 14 7 4 5 6 7 9 6 1 2 3 1 1 3 4 7 9 7 6 8 6 0 6 3 3 2 17 4 4 5 5 4 5 3 4 9 7 6 8 9 8 9 10
6 7 2 13 17 22 16 15 13 11 9 5 1 1 2 4 7 3 6 6 8 7 3 6 6 5 7 6 6 8 12 7 13 12 7 10 8 15 6 15 11 14 14 6 5 0 6 3 3 2 1 2 2 2 1 1 2 1 1 2 6 12 13 11 6 4 8 2 3 1 4 11 2 1 1 1 4 5 4 5 10 6 4 6 8 9 11 10
3 3 1 7 17 16 17 16 15 13 9 9 10 8 7 4 8 6 9 13 12 9 11 5 1 6 4 6 4 9 12 7 8 15 11 6 6 7 8 13 18 12 13 9 11 10 5 4 7 2 2 1 3 3 2 2 1 3 5 10 12 5 5 2 4 2 2 10 8 8 14 14 3 1 1 1 2 2 4 5 5 7 5 7 8 8 8 8
4 2 4 7 13 15 14 11 14 13 14 16 15 18 11 7 7 15 13 10 8 7 6 11 11 4 6 3 8 7 11 17 5 12 11 7 8 0 9 14 16 12 12 8 13 14 8 8 10 9 12 12 10 11 15 12 12 5 3 5 7 13 13 5 6 5 9 7 13 9 18 7 2 2 2 1 1 4 4 3 4 7 7 7 7 9 9 11
4 6 2 7 10 11 12 8 9 13 17 16 15 16 17 13 6 11 12 11 13 10 12 6 11 6 5 5 4 6 10 14 17 4 11 7 3 1 3 9 14 11 13 8 8 13 4 5 12 13 15 17 17 7 3 9 5 8 13 16 17 14 13 11 6 5 16 3 9 19 20 16 12 2 4 4 1 6 7 4 7 7 5 4 6 9 10 11
2 7 4 4 4 12 10 13 10 7 12 15 12 11 19 22 14 6 14 6 12 15 11 13 5 11 9 8 10 8 9 11 11 1 8 11 2 3 4 5 8 7 6 5 8 4 4 5 13 19 20 22 20 8 7 18 17 19 14 13 15 15 16 15 14 19 7 6 17 18 4 15 24 13 10 5 6 5 7 7 7 7 7 8 6 5 6 7
7 3 5 2 4 6 15 11 9 12 8 14 9 8 17 19 16 9 9 16 9 12 8 6 12 11 14 19 14 12 10 8 9 15 5 5 4 1 1 1 4 4 5 3 7 9 6 9 13 15 19 23 24 12 13 14 16 16 18 18 17 18 16 20 23 21 10 13 21 15 13 18 23 16 15 9 9 10 11 13 9 5 2 3 5 7 10 11
5 3 4 1 3 2 11 11 10 12 13 15 7 11 11 17 19 17 9 10 11 7 15 11 19 23 20 17 15 12 13 9 10 9 8 5 7 4 2 1 3 2 3 3 3 0 4 10 12 14 20 20 20 8 9 11 5 3 11 16 17 19 23 25 24 21 18 17 18 21 12 18 19 10 9 10 12 11 5 0 2 4 6 7 7 8 10 10
4 6 4 2 3 6 4 7 7 7 8 7 7 8 10 14 19 14 8 9 9 16 15 21 20 21 23 18 16 17 17 18 17 15 6 11 6 5 8 7 5 1 1 5 5 2 6 6 7 4 8 16 17 5 7 10 5 7 8 12 18 21 23 23 20 17 17 18 23 22 18 22 17 4 6 7 4 2 2 6 9 8 6 8 9 10 10 12
2 1 1 3 6 4 5 7 5 10 11 7 6 3 6 9 15 14 13 12 17 14 15 23 26 18 15 18 17 18 18 18 18 19 12 14 14 11 11 5 9 8 5 5 3 0 2 4 2 4 8 12 11 9 8 5 6 6 8 12 18 16 11 10 15 18 14 20 23 16 17 23 10 10 7 4 5 8 10 11 9 7 8 9 11 12 11 12
2 0 1 2 7 3 6 1 6 6 12 9 10 10 8 13 10 6 5 4 5 8 12 21 22 16 12 17 22 24 26 20 14 6 1 7 3 1 3 5 8 11 10 7 2 6 6 5 5 3 10 13 9 8 8 5 1 6 13 25 24 11 13 15 16 16 20 21 15 16 21 21 14 3 5 7 10 11 11 8 8 6 7 11 13 13 12 11
Wind_Direction
90 59 48 39 28 26 19 22 17 9 9 15 14 14 12 12 9 2 358 356 353 351 349 348 349 346 342 336 331 337 341 42 25 45 80 231 183 292 300 301 305 310 328 13 13 40 340 7 1 342 15 57 300 55 284 42 69 58 62 117 41 180 84 191 173 187 221 138 214 182 192 113 145 355 201 50 33 82 57 64 338 20 39 50 30 74 67 34
65 66 58 45 34 27 20 18 19 13 9 9 15 10 10 8 6 2 359 355 355 351 349 349 346 345 339 332 329 336 348 14 68 67 213 90 282 306 305 302 310 326 330 36 51 51 48 342 333 14 28 38 317 64 30 320 72 90 104 80 162 197 261 166 207 206 138 194 170 193 169 140 203 136 232 94 234 117 60 8 31 45 31 51 41 39 52 60
38 48 50 38 33 26 21 11 9 13 10 6 8 12 7 4 3 1 356 356 354 352 350 346 345 341 335 327 323 337 353 4 67 178 253 46 323 314 309 301 310 10 41 348 205 133 138 264 277 11 10 64 0 284 38 329 64 162 109 74 245 210 213 222 159 197 251 149 135 132 184 142 190 139 173 185 175 120 163 158 313 207 176 155 100 62 62 74
81 51 48 47 34 28 17 11 3 5 10 5 360 8 4 0 1 360 357 354 352 351 347 346 341 337 331 323 324 330 80 67 111 245 289 317 320 318 309 308 308 45 77 195 185 218 213 79 60 78 18 67 302 51 55 317 74 279 68 147 196 190 100 275 179 161 101 123 151 135 57 96 253 212 118 159 102 252 257 219 167 196 179 171 159 114 91 90
147 54 53 31 35 24 18 9 1 359 2 357 3 0 1 357 358 356 356 353 350 348 348 343 341 335 328 324 327 9 48 67 227 241 284 324 337 319 311 308 317 10 240 266 117 48 67 67 62 40 81 302 357 13 52 322 121 80 75 205 172 114 102 241 216 300 102 122 102 97 118 196 11 35 124 153 174 220 209 221 205 167 160 157 152 149 107 104
190 203 42 27 9 22 14 8 0 2 358 351 355 355 354 353 356 354 352 351 349 347 346 345 339 334 329 326 28 54 77 83 241 270 341 323 337 322 308 314 327 353 189 41 61 353 43 350 60 23 4 63 329 97 296 224 346 95 333 5 212 219 139 225 199 232 130 98 122 144 212 71 116 215 208 170 195 239 258 201 152 145 148 143 127 127 117 123
176 207 224 328 341 345 1 3 4 4 352 353 349 349 348 352 348 352 348 347 348 345 345 342 339 332 331 346 76 88 123 269 30 262 359 1 328 318 321 329 359 37 51 48 19 53 29 48 73 54 84 50 295 105 320 345 12 101 153 313 17 93 136 169 185 119 126 121 189 204 72 177 156 191 175 198 256 256 52 101 116 119 120 129 124 139 143 144
211 200 240 246 281 331 344 353 351 352 358 352 345 342 342 344 347 342 344 345 343 344 342 341 336 331 348 35 28 2 30 255 280 288 302 359 347 327 336 334 40 41 52 77 50 32 84 46 53 120 62 123 251 111 308 58 19 87 66 247 290 25 279 227 178 145 140 166 108 100 149 230 179 185 85 248 187 168 126 98 101 114 115 111 124 137 142 140
215 217 221 241 257 301 324 340 340 345 343 348 345 336 336 336 339 334 336 342 340 340 341 340 334 332 317 83 119 41 269 248 224 317 69 12 335 358 7 280 16 63 108 56 15 131 105 265 50 181 232 70 238 104 336 86 334 126 174 154 352 299 325 336 300 215 183 170 158 110 242 278 246 317 234 213 182 178 133 97 116 117 117 133 141 147 149 151
212 222 229 235 241 265 288 316 332 336 341 337 341 337 328 334 329 329 331 337 337 339 339 338 340 324 22 82 48 188 257 278 293 289 66 57 16 22 35 44 33 58 65 336 44 51 82 210 147 199 130 81 86 43 262 74 221 149 152 173 179 267 354 215 199 238 219 226 184 185 252 246 335 157 273 131 181 155 123 124 130 129 139 146 148 151 152 146
193 204 221 228 250 256 272 293 315 318 321 333 338 336 329 326 326 324 330 329 335 333 339 339 345 3 94 72 114 216 272 39 340 338 47 59 56 58 11 344 64 68 97 36 86 266 150 156 197 99 47 214 77 329 73 216 133 82 151 322 320 342 246 251 281 259 116 274 173 169 234 285 306 99 230 196 180 165 145 150 150 141 147 149 153 154 156 137
199 205 212 222 228 251 264 280 293 303 307 316 323 328 327 323 323 321 325 324 326 332 331 335 356 359 79 70 141 214 344 261 319 339 28 74 81 159 216 286 120 155 155 142 5 270 196 185 128 67 205 170 25 18 43 184 87 192 80 338 297 359 356 248 210 223 154 240 147 143 350 282 196 226 257 185 149 159 152 160 167 161 162 157 156 149 154 160
196 208 213 219 224 237 260 278 288 297 310 313 315 315 322 318 312 314 318 321 321 324 323 331 348 48 93 3 237 239 290 302 327 51 44 62 86 25 18 83 133 140 145 130 168 222 218 147 100 78 184 103 171 159 204 82 312 112 41 133 338 360 332 301 305 98 149 246 152 149 282 266 247 236 307 160 151 138 145 171 180 176 172 173 167 166 170 182
193 198 203 206 213 221 249 273 285 291 305 309 306 311 317 315 298 302 310 312 315 314 323 324 60 47 89 239 268 246 285 266 75 47 164 33 87 325 6 10 64 64 68 105 162 173 130 72 98 116 133 87 149 318 47 338 26 198 272 55 275 12 279 290 343 176 155 182 182 81 218 279 273 276 237 181 164 160 178 184 185 183 183 182 184 172 181 205
195 193 196 198 199 200 223 250 269 285 293 302 297 303 314 312 302 295 303 308 307 311 316 3 43 56 59 266 282 297 261 87 73 252 206 131 125 40 327 12 43 15 59 106 139 174 121 75 67 43 76 279 37 72 354 18 355 12 42 294 325 148 275 299 261 158 170 318 111 103 281 250 273 272 189 183 175 171 178 187 189 188 189 188 186 184 185 197
197 196 194 197 196 197 212 234 249 270 288 286 292 301 308 303 301 295 295 293 296 326 341 86 12 106 99 302 249 7 42 127 221 225 263 140 140 174 177 140 356 8 33 353 44 62 36 89 76 180 179 16 56 86 42 24 337 348 140 271 282 243 265 336 19 238 143 113 329 172 225 328 295 314 186 183 175 185 185 197 196 195 193 190 190 188 181 173
199 194 194 196 196 198 211 223 230 252 267 276 290 295 288 278 286 299 292 283 277 179 83 123 16 81 150 256 94 208 224 232 287 68 168 139 165 162 111 55 27 38 21 31 19 55 351 63 289 27 37 117 133 96 75 8 314 306 6 218 206 199 276 282 302 262 241 146 206 258 234 242 235 310 213 204 190 183 207 210 206 200 198 196 189 189 184 182
199 194 194 195 199 198 204 214 228 248 265 279 293 291 283 278 297 327 338 58 94 106 60 173 141 66 285 18 202 234 169 130 175 178 114 264 129 107 97 106 38 74 44 41 356 77 330 50 31 182 0 30 90 81 130 229 199 220 184 285 296 259 218 241 313 257 128 264 188 221 236 260 265 263 210 211 199 197 217 212 206 202 201 199 198 195 192 188
199 194 193 195 201 202 201 211 227 252 266 287 298 283 273 278 344 147 52 350 99 23 28 232 145 160 208 224 159 61 89 209 103 111 193 135 79 110 69 91 84 112 109 69 265 87 353 58 26 53 201 187 206 172 181 215 157 197 173 194 182 235 252 195 237 265 173 195 227 199 220 245 252 261 238 214 203 206 226 227 222 216 211 206 202 201 196 195
199 199 196 196 198 197 202 209 225 242 274 317 345 1 52 46 11 312 343 21 218 186 180 202 189 265 74 12 146 256 177 47 118 273 239 280 114 80 38 84 33 58 107 172 295 183 123 121 171 196 214 208 198 193 199 205 161 110 112 135 219 220 276 286 264 256 195 114 227 225 233 245 257 246 255 211 197 227 238 233 224 214 209 207 205 203 198 192
199 201 199 194 191 193 200 212 217 242 256 194 282 89 174 177 138 247 216 244 254 273 192 255 204 156 278 146 147 150 125 288 42 201 210 126 114 113 200 71 41 92 286 175 138 270 69 168 239 222 214 194 200 205 223 42 150 185 219 222 271 194 256 239 244 5 297 173 288 240 242 252 252 258 257 221 171 220 219 226 228 222 213 210 203 200 196 180
198 200 198 194 191 191 200 207 211 237 196 197 143 183 266 202 235 228 121 281 277 243 243 232 3 305 335 164 226 157 73 101 234 243 265 140 182 145 253 109 155 187 190 110 43 74 169 197 233 229 198 140 178 183 196 202 235 234 207 254 289 265 247 282 258 277 277 150 259 272 257 259 256 252 253 220 205 221 214 213 218 213 212 206 202 197 175 162
194 197 196 190 190 192 198 199 204 183 96 142 218 196 219 225 341 227 96 121 270 260 207 213 235 229 258 313 232 145 175 175 187 213 205 145 128 212 146 119 179 142 109 146 166 163 265 279 244 229 137 156 234 165 161 201 258 230 266 226 239 233 33 296 292 353 295 171 268 328 304 278 269 247 244 234 214 230 225 220 226 214 210 202 199 188 183 183
194 191 190 188 186 195 198 191 183 149 200 205 255 217 220 75 46 42 96 224 276 286 193 210 196 193 207 164 208 156 182 229 114 197 248 141 163 180 127 175 154 125 179 190 187 185 205 209 270 146 167 168 200 204 158 174 243 238 208 218 246 235 232 195 253 315 316 320 36 305 300 286 255 258 259 254 261 257 253 228 239 238 228 214 191 192 191 181
192 189 185 186 185 182 191 160 190 197 140 182 264 244 246 205 56 14 79 332 343 284 270 336 156 223 194 48 115 163 240 297 225 187 177 155 140 109 218 161 101 206 189 200 206 261 262 251 76 111 156 174 182 222 212 172 233 268 223 201 218 222 232 265 336 13 13 328 341 78 326 272 277 249 248 277 330 255 250 220 233 222 218 182 187 194 181 191
189 187 184 182 178 176 162 176 213 142 149 201 210 223 234 233 266 111 91 84 281 259 29 250 144 255 134 184 123 172 79 240 209 190 155 200 143 148 103 186 150 214 191 145 197 213 213 194 161 154 154 178 188 204 230 165 213 201 265 195 213 203 201 204 254 67 290 254 300 21 209 280 266 255 239 272 253 253 261 231 242 225 213 199 199 186 183 180
186 184 181 178 176 160 160 230 140 124 137 262 222 215 205 168 132 37 105 8 302 192 170 252 146 265 284 189 144 117 173 234 67 90 152 295 185 335 144 193 74 6 150 166 17 263 138 201 193 132 138 164 189 223 237 174 175 238 248 152 171 168 197 223 190 182 232 264 297 23 132 262 289 262 209 223 241 257 265 259 245 233 214 208 203 188 183 182
185 182 180 177 174 171 181 128 145 172 197 226 166 171 132 137 109 79 85 356 270 118 137 230 212 348 87 188 157 166 230 150 117 230 1 274 80 325 170 192 180 179 183 121 222 263 152 186 181 188 193 186 208 204 184 162 158 220 209 132 144 175 183 128 165 186 204 27 278 295 351 304 244 279 334 143 251 267 260 255 248 229 214 211 201 192 187 183
183 182 178 178 177 180 191 150 194 214 198 124 109 128 128 137 119 96 129 178 250 93 270 98 278 58 32 112 177 83 143 354 167 168 312 35 32 141 204 210 180 176 204 179 222 179 315 171 196 179 173 217 211 230 159 160 206 263 135 89 78 74 66 94 91 99 329 71 255 216 189 225 276 206 153 351 228 258 256 254 254 227 211 201 196 190 181 175
186 185 179 176 174 186 194 130 239 249 72 91 124 120 118 118 90 101 71 239 81 260 166 226 173 194 150 154 192 15 140 352 47 107 50 155 212 25 352 153 119 141 220 294 293 201 250 295 174 124 203 199 127 71 159 202 181 126 82 66 21 42 31 20 62 78 357 260 246 187 208 175 282 179 180 163 216 204 243 281 291 234 199 197 197 186 180 178
191 186 183 172 184 178 146 205 226 171 166 122 137 119 114 32 139 140 207 222 15 203 50 166 180 98 151 158 179 298 80 28 99 154 130 50 18 44 109 33 50 59 16 326 279 335 356 359 144 258 109 101 103 84 21 79 132 133 97 120 57 337 16 31 341 43 210 262 246 194 198 187 228 283 272 243 284 236 214 236 261 236 210 201 194 191 185 176
195 187 183 183 170 145 184 199 200 175 174 160 149 146 154 171 331 197 218 71 282 211 162 189 229 160 181 181 153 174 169 59 182 172 161 175 163 171 206 180 149 147 259 212 254 27 274 206 255 328 204 133 117 92 6 31 48 87 100 88 132 253 34 300 26 271 210 240 284 341 152 350 239 240 257 274 268 271 227 216 229 222 221 208 198 189 177 170
193 190 188 190 162 192 199 142 183 156 151 171 152 168 179 165 205 192 230 154 248 137 250 114 169 170 168 154 201 161 37 174 176 189 127 169 162 223 230 195 210 143 207 203 194 95 266 287 320 252 349 233 146 167 176 75 217 124 145 152 134 208 225 271 259 261 304 292 277 0 134 252 307 279 226 246 249 244 259 229 229 228 222 202 195 177 170 175
195 193 191 191 189 186 172 161 154 157 163 163 155 119 357 209 213 188 211 205 214 8 106 119 101 53 154 175 201 154 176 246 156 204 171 164 172 202 234 244 197 254 91 118 176 187 236 308 238 142 238 178 184 199 187 161 154 202 111 155 188 153 153 226 194 215 225 224 289 271 125 234 125 244 253 246 272 300 268 266 246 251 245 198 171 161 162 170
198 199 192 190 194 188 176 168 168 160 168 155 165 175 184 210 215 203 214 212 192 82 38 149 118 132 210 305 288 205 138 199 187 134 181 153 202 201 187 209 218 143 156 144 247 83 214 234 266 202 297 159 187 209 109 91 93 223 166 59 100 213 148 238 193 179 251 320 331 203 210 193 193 243 278 242 290 286 283 298 271 243 140 138 151 170 179 183
206 197 185 187 196 188 179 168 168 165 160 166 174 189 202 186 200 194 232 184 182 145 136 71 87 135 199 200 339 196 265 121 203 130 232 219 221 199 209 200 194 190 163 195 154 176 49 267 284 41 43 173 188 133 184 150 200 207 112 196 207 165 150 269 16 22 83 32 253 148 275 277 303 277 245 251 237 267 307 287 256 223 180 165 181 182 183 183
202 185 204 192 202 182 175 170 163 177 185 169 184 201 207 234 230 168 232 186 191 166 133 159 218 164 185 205 194 191 217 77 189 149 222 138 284 217 210 235 168 193 211 157 287 197 154 236 298 105 210 304 87 131 103 21 144 97 183 230 121 93 113 148 232 335 62 220 272 151 240 278 56 282 313 230 239 262 274 256 238 219 186 195 197 190 186 187
206 210 218 208 198 171 172 167 164 180 185 185 196 202 197 224 221 200 132 107 104 138 174 207 224 155 197 174 209 174 217 178 193 183 213 184 244 191 186 200 204 195 206 207 174 246 150 286 260 336 99 338 348 95 19 356 31 151 191 201 132 240 238 289 92 259 209 254 281 265 250 257 193 246 76 219 219 242 248 244 230 231 214 213 198 196 192 174
216 204 216 219 168 163 174 165 175 179 195 197 190 203 208 223 205 191 219 184 155 155 202 211 193 211 163 189 167 174 167 192 170 194 155 221 219 192 188 172 220 203 195 184 194 229 107 190 294 335 124 306 31 132 199 204 6 34 66 117 83 100 184 137 200 180 118 268 13 279 94 262 159 224 188 226 207 221 232 230 230 225 214 200 196 189 185 186
209 226 239 174 150 165 165 175 183 198 196 200 188 221 191 219 173 190 237 204 191 172 210 208 202 188 190 197 163 170 215 194 165 195 198 206 204 283 187 189 171 181 184 186 203 132 213 158 252 294 311 111 189 188 195 163 180 184 133 193 167 38 242 118 317 149 172 191 191 283 294 264 226 199 179 210 208 217 212 219 225 230 214 203 197 187 189 192
208 252 277 140 157 154 164 181 198 200 204 208 206 206 187 201 159 189 211 226 345 303 181 222 185 205 182 171 218 180 174 175 188 190 197 232 188 237 200 174 135 159 139 172 209 187 193 162 203 136 264 222 251 241 211 196 196 187 178 191 180 151 144 167 249 64 136 138 244 173 259 271 258 166 201 195 222 211 226 216 231 236 206 200 198 194 191 191
209 231 245 158 151 154 162 203 207 197 210 195 201 190 204 169 59 198 184 223 205 253 1 237 224 212 198 200 182 192 149 185 192 194 231 209 214 221 235 171 169 150 150 178 200 203 168 152 110 192 206 199 216 263 283 240 97 194 175 231 181 184 170 175 217 222 173 239 105 189 17 278 178 172 238 209 242 288 258 196 246 237 209 205 202 194 197 198
216 238 5 159 161 161 174 205 197 206 219 232 281 323 49 177 207 151 157 190 224 208 230 233 208 199 222 195 176 184 177 204 179 206 203 221 232 202 197 180 150 162 164 193 180 274 91 115 190 280 339 322 309 303 0 35 106 335 308 141 149 202 196 202 205 168 192 203 192 274 260 258 27 247 231 258 262 221 272 208 229 237 200 206 193 187 191 188
262 243 116 186 176 178 190 192 192 199 207 225 215 223 200 201 181 172 194 186 196 199 217 217 123 203 236 200 168 192 182 222 210 204 227 210 248 205 170 184 158 175 170 201 168 183 153 231 164 131 358 341 346 321 289 335 93 206 186 204 205 196 206 172 84 96 256 213 159 171 241 263 212 345 292 58 326 309 240 257 227 230 222 200 193 190 189 184
283 278 215 181 194 187 212 190 198 191 197 202 193 212 208 228 202 205 199 194 193 217 203 231 220 154 211 154 203 194 191 204 221 213 219 199 223 232 197 183 186 178 203 184 169 165 178 156 155 187 215 225 223 200 207 195 202 201 246 183 193 196 189 131 227 197 227 231 140 214 248 235 13 312 311 312 14 309 278 254 265 226 208 198 191 183 187 184
219 261 205 190 193 206 218 220 213 193 195 196 200 209 205 215 215 206 191 212 196 207 219 229 228 209 214 190 197 196 210 212 217 170 199 222 245 292 214 194 193 196 205 180 180 154 173 177 179 189 209 227 233 239 66 111 77 192 211 185 204 203 200 199 224 211 224 179 181 226 233 271 267 260 276 270 210 240 265 286 237 237 240 205 188 189 190 193
298 228 192 270 170 220 216 207 209 194 210 187 204 174 201 207 207 200 185 219 198 204 210 219 196 198 208 208 215 228 215 213 222 196 206 209 201 214 310 191 211 228 156 139 168 90 83 175 204 202 211 230 243 220 187 159 186 208 195 200 202 194 194 192 200 224 152 107 249 241 192 251 259 242 242 245 267 267 258 256 263 251 222 210 202 184 170 173
231 251 235 240 248 207 212 219 212 213 205 193 207 175 203 203 202 198 174 220 204 197 203 215 229 224 209 205 199 217 202 215 185 222 202 216 125 290 97 332 184 197 162 193 177 177 167 203 210 207 221 230 236 216 180 184 193 196 200 199 195 199 193 199 217 223 158 202 233 248 178 230 250 239 239 209 217 221 220 230 229 217 192 151 154 177 192 192
234 330 274 8 243 233 226 233 189 214 210 190 207 208 204 204 207 203 185 192 208 198 199 216 212 215 217 211 204 216 207 201 229 220 204 163 180 133 166 7 277 53 151 142 166 201 153 225 212 200 222 230 236 168 189 181 195 192 206 206 199 195 202 205 215 216 210 223 239 252 225 233 244 239 222 222 216 221 224 187 118 170 200 185 180 194 196 194
200 207 258 276 266 277 305 247 222 208 238 177 178 215 210 207 216 205 203 173 188 209 194 217 221 213 215 214 207 216 212 214 208 212 183 168 207 191 198 187 147 349 151 183 167 289 152 226 109 149 214 237 239 162 167 196 171 205 220 216 210 207 207 205 212 223 223 236 240 243 255 262 252 149 217 222 206 100 138 204 213 213 182 186 197 202 200 200
256 186 105 341 305 268 245 240 244 216 220 210 217 192 208 217 226 206 209 196 196 193 194 213 222 219 216 218 221 228 229 223 224 222 194 174 198 198 175 234 156 156 168 141 161 164 163 234 74 118 199 243 234 167 183 167 199 219 233 227 227 215 210 210 216 220 203 222 232 243 250 252 255 177 206 153 162 197 212 218 218 215 198 189 198 204 199 201
235 270 151 225 261 213 250 220 229 218 225 210 188 194 191 210 219 194 243 246 243 228 206 215 221 214 213 211 218 221 224 224 237 253 178 201 248 77 185 138 158 159 165 151 102 147 171 157 171 165 208 233 242 132 187 169 127 262 253 240 227 201 205 218 228 223 215 214 222 222 236 242 240 157 151 208 196 211 219 214 222 220 200 197 202 201 197 194